Location: Limerick
(52.6650°N, 8.6230°W)
Time: 14:10:55
(UTC+01:00)

N. Korean satellite - Visible Passes

Search period start: 29 March 2017 00:00
Search period end: 08 April 2017 00:00
Orbit: 461 x 520 km, 97.2° (Epoch: 27 March)

Date Brightness Start Highest point End Pass type
(mag) Time Alt. Az. Time Alt. Az. Time Alt. Az.
29 Mar 9.9 21:02:18 10° WSW 21:03:59 13° W 21:05:41 10° WNW visible
30 Mar 9.5 20:38:27 10° SW 20:41:13 21° W 20:43:58 10° NW visible
02 Apr 10.0 21:05:56 10° WSW 21:07:15 12° W 21:08:35 10° WNW visible
06 Apr 10.2 21:09:35 10° W 21:10:26 11° W 21:11:16 10° WNW visible
